User: anonymous   Login
Location: Columbia
(38.9520°N, 92.3340°W)
Time: 03:33:43
(UTC-05:00)
Language:

Cosmos 1603 - Orbit

View from above orbital plane
View from above orbital plane
View from above satellite
View from above satellite

Ground track
Ground track

The orbit data is extracted from the following two-line orbital elements,

1 15333U 84106A   15243.95930382 +.00000222 +00000-0 +14151-3 0  9999
2 15333 071.0268 024.3453 0018280 128.2172 346.2120 14.14007028595390
Epoch (UTC): 31 August 2015 23:01:23
Eccentricity: 0.0018280
inclination: 71.0268°
perigee height: 832 km
apogee height: 859 km
right ascension of ascending node: 24.3453°
argument of perigee: 128.2172°
revolutions per day: 14.14007028
mean anomaly at epoch: 346.2120°
orbit number at epoch: 59539

The dashed part of the orbit path shows where the satellite is in the earth's shadow,  

DLR